Location: Unspecified
(0.0000°N, 0.0000°E)
Time: 23:39:59
(UTC+00:00)

Vanguard 1 - Visible Passes

Search period start: 27 October 2021 00:00
Search period end: 06 November 2021 00:00
Orbit: 653 x 3829 km, 34.2° (Epoch: 27 October)

Date Brightness Start Highest point End Pass type
(mag) Time Alt. Az. Time Alt. Az. Time Alt. Az.
27 Oct 14.0 01:19:16 10° SW 01:33:13 18° S 01:44:45 10° SE visible
27 Oct 13.2 03:49:43 10° SSW 04:04:17 28° SSE 04:13:33 10° ESE visible
27 Oct 11.9 18:13:05 10° NW 18:23:46 82° NE 18:43:44 10° SE visible
27 Oct 13.2 20:35:30 10° W 20:49:59 43° SSW 21:11:18 10° SE visible
27 Oct 14.0 23:06:22 10° WSW 23:21:55 23° SSW 23:38:06 10° SSE visible
28 Oct 13.9 01:42:22 10° SSW 01:56:53 20° S 02:08:16 10° SE visible
28 Oct 12.9 04:10:56 10° SW 04:26:32 36° SSE 04:35:45 10° E visible
28 Oct 12.1 18:34:01 10° WNW 18:45:05 79° SW 19:05:32 10° SE visible
28 Oct 13.5 20:57:55 10° W 21:12:29 35° SSW 21:32:38 10° SE visible
28 Oct 14.0 23:30:45 10° SW 23:45:46 20° S 00:00:34 10° SE visible
29 Oct 13.7 02:04:39 10° SSW 02:20:13 23° SSE 02:31:42 10° ESE visible
29 Oct 12.5 04:32:09 10° SW 04:48:30 47° SSE 04:57:32 10° E visible
29 Oct 12.5 18:55:14 10° WNW 19:06:40 62° SSW 19:27:05 10° SE visible
29 Oct 13.7 21:20:52 10° WSW 21:35:19 29° SSW 21:54:06 10° SSE visible
29 Oct 14.0 23:54:54 10° SW 00:09:48 20° S 00:23:42 10° SE visible
30 Oct 13.5 02:26:24 10° SSW 02:43:12 27° SSE 02:54:47 10° ESE visible
30 Oct 12.0 04:53:29 10° SW 05:10:09 62° SSE 05:18:56 10° ENE visible
30 Oct 12.8 19:16:47 10° W 19:28:31 49° SSW 19:48:28 10° SE visible
30 Oct 13.9 21:44:18 10° WSW 21:58:32 25° SSW 22:15:53 10° SSE visible
31 Oct 14.0 00:18:24 10° SW 00:33:47 20° S 00:47:23 10° SE visible
31 Oct 13.3 02:47:51 10° SW 03:05:50 34° SSE 03:17:25 10° E visible
31 Oct 11.6 05:15:01 10° SW 05:31:32 83° SE 05:40:01 10° ENE visible
31 Oct 13.2 19:38:42 10° W 19:50:41 39° SSW 20:09:47 10° SE visible
31 Oct 14.0 22:08:08 10° SW 22:22:08 22° S 22:38:10 10° SE visible
01 Nov 13.9 00:41:08 10° SSW 00:57:32 22° SSE 01:11:14 10° ESE visible
01 Nov 12.9 03:09:11 10° SW 03:28:09 42° SSE 03:39:35 10° E visible
01 Nov 13.5 20:01:05 10° W 20:13:09 31° SSW 20:31:10 10° SE visible
01 Nov 14.1 22:32:02 10° SW 22:46:00 20° S 23:01:09 10° SE visible
02 Nov 13.8 01:03:12 10° SSW 01:20:57 26° SSE 01:34:51 10° ESE visible
02 Nov 12.6 03:30:31 10° SW 03:50:10 54° SSE 04:01:19 10° ENE visible
02 Nov 12.4 17:58:56 10° WNW 18:08:13 56° SSW 18:25:28 10° SE visible
02 Nov 13.7 20:23:56 10° WSW 20:35:58 26° SSW 20:52:43 10° SSE visible
02 Nov 14.1 22:55:36 10° SW 23:10:03 20° S 23:24:53 10° SE visible
03 Nov 13.6 01:24:52 10° SW 01:44:00 31° SSE 01:58:03 10° ESE visible
03 Nov 12.2 03:51:57 10° SW 04:11:52 69° SE 04:22:42 10° ENE visible
03 Nov 12.8 18:20:29 10° W 18:30:01 43° SSW 18:46:46 10° SE visible
03 Nov 13.9 20:47:14 10° SW 20:59:08 22° S 21:14:40 10° SSE visible
03 Nov 14.0 23:18:32 10° SSW 23:34:02 21° S 23:49:04 10° SE visible
04 Nov 13.3 01:46:16 10° SW 02:06:40 38° SSE 02:20:43 10° E visible
04 Nov 11.9 04:13:36 10° SW 04:33:19 87° SE 04:43:46 10° NE visible
04 Nov 13.2 18:42:27 10° W 18:52:07 33° SSW 19:07:59 10° SE visible
04 Nov 14.0 21:10:47 10° SW 21:22:39 20° S 21:37:16 10° SE visible
04 Nov 13.9 23:40:49 10° SSW 23:57:47 24° SSE 00:13:20 10° ESE visible
05 Nov 13.0 02:07:35 10° SW 02:29:01 47° SSE 02:42:54 10° E visible
05 Nov 11.8 04:35:32 10° WSW 04:54:30 73° NW 05:04:35 10° NE visible
05 Nov 13.5 19:04:51 10° WSW 19:14:31 27° SSW 19:29:17 10° SSE visible
05 Nov 14.0 21:34:16 10° SW 21:46:27 19° S 22:00:43 10° SE visible
